Starlink 31395

operational
NORAD ID: 59180 Int'l Des: 2024-045 Owner: SPXS Country: US Constellation: starlink
LEOCIRCULAR

About Starlink 31395

Description loading...

Live Position

Loading 3D Globe...

Upcoming Passes

Altitude History

Altitude vs Time

uPlot chart will show altitude changes over time

Two-Line Element Set

1 59180U 24045C 25296.29430195 .00001214 00000-0 53651-4 0 9997
2 59180 43.0010 148.9050 0001289 262.7633 97.3072 15.27578240 92144
Epoch: Oct 23, 2025 • Age: 19 hours

Current Status

Altitude 483.7 km
Velocity 7.63 km/s
Sub-Earth Point 26.51°N, 112.76°E
Launch Date Mar 11, 2024
Age 1.6 years
Type internet

Technical Details

Classification Payload
Mass 730.00 kg
Dry Mass 700.00 kg
Total Mass 730.00 kg
Length 0.30 m
Diameter 4.10 m
Span 29.00 m
Shape Box + pan
Manufacturer SPXS
Bus Type Starlink V2M
Phase Status In Orbit
Owner/State SPXS/US

Large Constellations

Loading constellations...